Time,TemperatureF,DewpointF,PressureIn,WindDirection,WindDirectionDegrees,WindSpeedMPH,WindSpeedGustMPH,Humidity,HourlyPrecipIn,Conditions,Clouds,dailyrainin,SoftwareType,DateUTC
2013-04-28 00:03:00,86.0,74.0,30.02,North,360,0.0,1.0,68,0.00,,,0.00,,2013-04-28 04:03:00,
2013-04-28 00:13:00,86.0,74.0,30.02,North,360,0.0,1.0,68,0.00,,,0.00,,2013-04-28 04:13:00,
2013-04-28 00:23:00,86.0,75.0,30.02,North,360,0.0,1.0,70,0.00,,,0.00,,2013-04-28 04:23:00,
2013-04-28 00:32:00,85.0,75.0,30.02,NE,53,0.0,0.0,71,0.00,,,0.00,,2013-04-28 04:32:00,
2013-04-28 00:43:00,85.0,75.0,30.02,NE,53,0.0,0.0,71,0.00,,,0.00,,2013-04-28 04:43:00,
2013-04-28 00:53:00,85.0,75.0,30.01,North,352,1.0,2.0,72,0.00,,,0.00,,2013-04-28 04:53:00,
2013-04-28 01:02:00,84.0,74.0,30.01,South,169,0.0,3.0,73,0.00,,,0.00,,2013-04-28 05:02:00,
2013-04-28 01:12:00,84.0,74.0,30.01,South,169,0.0,3.0,73,0.00,,,0.00,,2013-04-28 05:12:00,
2013-04-28 01:22:00,84.0,75.0,30.01,SSW,196,0.0,0.0,74,0.00,,,0.00,,2013-04-28 05:22:00,
2013-04-28 01:32:00,84.0,75.0,30.00,North,360,0.0,0.0,75,0.00,,,0.00,,2013-04-28 05:32:00,
2013-04-28 01:42:00,84.0,75.0,30.00,North,360,0.0,0.0,75,0.00,,,0.00,,2013-04-28 05:42:00,
2013-04-28 01:52:00,84.0,75.0,30.00,ENE,75,0.0,0.0,75,0.00,,,0.00,,2013-04-28 05:52:00,
2013-04-28 02:01:00,84.0,76.0,29.99,WSW,252,2.0,2.0,76,0.00,,,0.00,,2013-04-28 06:01:00,
2013-04-28 02:12:00,84.0,76.0,29.99,WSW,252,2.0,2.0,76,0.00,,,0.00,,2013-04-28 06:12:00,
2013-04-28 02:21:00,84.0,75.0,29.99,WNW,299,0.0,0.0,75,0.00,,,0.00,,2013-04-28 06:21:00,
2013-04-28 02:32:00,84.0,76.0,29.99,North,360,0.0,0.0,76,0.00,,,0.00,,2013-04-28 06:32:00,
2013-04-28 02:42:00,84.0,76.0,29.99,North,360,0.0,0.0,76,0.00,,,0.00,,2013-04-28 06:42:00,
2013-04-28 02:52:00,83.0,75.0,29.98,South,179,0.0,1.0,76,0.00,,,0.00,,2013-04-28 06:52:00,
2013-04-28 03:01:00,83.0,75.0,29.98,North,360,0.0,1.0,76,0.00,,,0.00,,2013-04-28 07:01:00,
2013-04-28 03:11:00,83.0,75.0,29.98,North,360,0.0,1.0,76,0.00,,,0.00,,2013-04-28 07:11:00,
2013-04-28 03:21:00,83.0,75.0,29.97,North,360,0.0,0.0,76,0.00,,,0.00,,2013-04-28 07:21:00,
2013-04-28 03:32:00,83.0,75.0,29.97,North,360,0.0,0.0,77,0.00,,,0.00,,2013-04-28 07:32:00,
2013-04-28 03:42:00,83.0,75.0,29.97,North,360,0.0,0.0,77,0.00,,,0.00,,2013-04-28 07:42:00,
2013-04-28 03:52:00,82.0,74.0,29.96,North,6,0.0,1.0,78,0.00,,,0.00,,2013-04-28 07:52:00,
2013-04-28 04:02:00,82.0,74.0,29.95,SSW,200,0.0,0.0,78,0.00,,,0.00,,2013-04-28 08:02:00,
2013-04-28 04:11:00,82.0,74.0,29.95,SSW,200,0.0,0.0,78,0.00,,,0.00,,2013-04-28 08:11:00,
2013-04-28 04:21:00,83.0,75.0,29.95,SSW,192,2.0,2.0,78,0.00,,,0.00,,2013-04-28 08:21:00,
2013-04-28 04:32:00,71.0,64.0,29.95,North,360,0.0,0.0,79,0.00,,,0.00,,2013-04-28 08:32:00,
2013-04-28 04:42:00,71.0,64.0,29.95,North,360,0.0,0.0,79,0.00,,,0.00,,2013-04-28 08:42:00,
2013-04-28 04:52:00,70.0,64.0,29.95,North,360,0.0,0.0,80,0.00,,,0.00,,2013-04-28 08:52:00,
2013-04-28 05:01:00,70.0,64.0,29.95,North,360,0.0,0.0,81,0.00,,,0.00,,2013-04-28 09:01:00,
2013-04-28 05:12:00,70.0,64.0,29.95,North,360,0.0,0.0,81,0.00,,,0.00,,2013-04-28 09:12:00,
2013-04-28 05:21:00,70.0,64.0,29.95,SE,146,0.0,2.0,81,0.00,,,0.00,,2013-04-28 09:21:00,
2013-04-28 05:33:00,70.0,64.0,29.95,North,358,0.0,1.0,81,0.00,,,0.00,,2013-04-28 09:33:00,
2013-04-28 05:42:00,70.0,64.0,29.95,North,358,0.0,1.0,81,0.00,,,0.00,,2013-04-28 09:42:00,
2013-04-28 05:53:00,70.0,64.0,29.95,North,360,0.0,0.0,81,0.00,,,0.00,,2013-04-28 09:53:00,
2013-04-28 06:03:00,70.0,64.0,29.95,North,360,0.0,0.0,81,0.00,,,0.00,,2013-04-28 10:03:00,
2013-04-28 06:12:00,70.0,64.0,29.95,North,360,0.0,0.0,81,0.00,,,0.00,,2013-04-28 10:12:00,
2013-04-28 06:22:00,70.0,64.0,29.95,WNW,282,1.0,3.0,81,0.00,,,0.00,,2013-04-28 10:22:00,
2013-04-28 06:32:00,70.0,64.0,29.95,South,185,0.0,1.0,80,0.00,,,0.00,,2013-04-28 10:32:00,
2013-04-28 06:42:00,70.0,64.0,29.95,South,185,0.0,1.0,80,0.00,,,0.00,,2013-04-28 10:42:00,
2013-04-28 06:53:00,70.0,63.0,29.95,West,278,1.0,1.0,79,0.00,,,0.00,,2013-04-28 10:53:00,
2013-04-28 07:02:00,70.0,64.0,29.96,North,360,0.0,0.0,80,0.00,,,0.00,,2013-04-28 11:02:00,
2013-04-28 07:11:00,70.0,64.0,29.96,North,360,0.0,0.0,80,0.00,,,0.00,,2013-04-28 11:11:00,
2013-04-28 07:22:00,70.0,64.0,29.97,NNW,337,0.0,0.0,80,0.00,,,0.00,,2013-04-28 11:22:00,
2013-04-28 07:32:00,70.0,64.0,29.97,North,360,0.0,0.0,81,0.00,,,0.00,,2013-04-28 11:32:00,
2013-04-28 07:42:00,70.0,64.0,29.97,North,360,0.0,0.0,81,0.00,,,0.00,,2013-04-28 11:42:00,
2013-04-28 07:52:00,69.0,63.0,29.97,North,360,0.0,0.0,82,0.00,,,0.00,,2013-04-28 11:52:00,
2013-04-28 08:02:00,69.0,64.0,29.98,North,360,0.0,0.0,83,0.00,,,0.00,,2013-04-28 12:02:00,
2013-04-28 08:12:00,69.0,64.0,29.98,North,360,0.0,0.0,83,0.00,,,0.00,,2013-04-28 12:12:00,
2013-04-28 08:21:00,69.0,64.0,29.98,North,360,0.0,1.0,84,0.00,,,0.00,,2013-04-28 12:21:00,
2013-04-28 08:32:00,69.0,64.0,29.98,North,360,0.0,0.0,83,0.00,,,0.00,,2013-04-28 12:32:00,
2013-04-28 08:42:00,69.0,64.0,29.98,North,360,0.0,0.0,83,0.00,,,0.00,,2013-04-28 12:42:00,
2013-04-28 08:52:00,70.0,65.0,29.99,North,360,0.0,0.0,83,0.00,,,0.00,,2013-04-28 12:52:00,
2013-04-28 09:02:00,70.0,64.0,29.99,NNE,15,0.0,0.0,82,0.00,,,0.00,,2013-04-28 13:02:00,
2013-04-28 09:11:00,70.0,64.0,29.99,NNE,15,0.0,0.0,82,0.00,,,0.00,,2013-04-28 13:11:00,
2013-04-28 09:21:00,72.0,65.0,29.99,North,360,0.0,0.0,79,0.00,,,0.00,,2013-04-28 13:21:00,
2013-04-28 09:32:00,73.0,65.0,30.00,SSW,202,1.0,1.0,77,0.00,,,0.00,,2013-04-28 13:32:00,
2013-04-28 09:42:00,73.0,65.0,30.00,SSW,202,1.0,1.0,77,0.00,,,0.00,,2013-04-28 13:42:00,
2013-04-28 09:52:00,73.0,65.0,29.99,SW,227,0.0,0.0,75,0.00,,,0.00,,2013-04-28 13:52:00,
2013-04-28 10:02:00,74.0,64.0,30.00,South,179,3.0,3.0,72,0.00,,,0.00,,2013-04-28 14:02:00,
2013-04-28 10:11:00,74.0,64.0,30.00,South,179,3.0,3.0,72,0.00,,,0.00,,2013-04-28 14:11:00,
2013-04-28 10:22:00,74.0,64.0,30.00,South,181,3.0,3.0,70,0.00,,,0.00,,2013-04-28 14:22:00,
2013-04-28 10:32:00,75.0,63.0,30.00,South,182,2.0,5.0,67,0.00,,,0.00,,2013-04-28 14:32:00,
2013-04-28 10:42:00,75.0,63.0,30.00,South,182,2.0,5.0,67,0.00,,,0.00,,2013-04-28 14:42:00,
2013-04-28 10:52:00,76.0,64.0,30.00,South,183,2.0,4.0,67,0.00,,,0.00,,2013-04-28 14:52:00,
2013-04-28 11:02:00,76.0,64.0,30.01,NNE,18,0.0,1.0,66,0.00,,,0.00,,2013-04-28 15:02:00,
2013-04-28 11:12:00,76.0,64.0,30.01,NNE,18,0.0,1.0,66,0.00,,,0.00,,2013-04-28 15:12:00,
2013-04-28 11:21:00,77.0,65.0,30.01,South,179,2.0,6.0,66,0.00,,,0.00,,2013-04-28 15:21:00,
2013-04-28 11:32:00,77.0,64.0,30.00,South,185,6.0,6.0,65,0.00,,,0.00,,2013-04-28 15:32:00,
2013-04-28 11:42:00,77.0,64.0,30.00,South,185,6.0,6.0,65,0.00,,,0.00,,2013-04-28 15:42:00,
2013-04-28 11:53:00,77.0,64.0,29.99,South,183,2.0,5.0,64,0.00,,,0.00,,2013-04-28 15:53:00,
2013-04-28 12:03:00,78.0,64.0,29.99,South,183,4.0,4.0,63,0.00,,,0.00,,2013-04-28 16:03:00,
2013-04-28 12:13:00,78.0,64.0,29.99,South,183,4.0,4.0,63,0.00,,,0.00,,2013-04-28 16:13:00,
2013-04-28 12:23:00,79.0,64.0,29.98,South,185,3.0,8.0,60,0.00,,,0.00,,2013-04-28 16:23:00,
2013-04-28 12:33:00,79.0,63.0,29.98,South,185,6.0,6.0,58,0.00,,,0.00,,2013-04-28 16:33:00,
2013-04-28 12:42:00,79.0,63.0,29.98,South,185,6.0,6.0,58,0.00,,,0.00,,2013-04-28 16:42:00,
2013-04-28 12:52:00,80.0,63.0,29.98,SSE,158,1.0,6.0,57,0.00,,,0.00,,2013-04-28 16:52:00,
2013-04-28 13:02:00,80.0,62.0,29.98,South,185,4.0,6.0,55,0.00,,,0.00,,2013-04-28 17:02:00,
2013-04-28 13:12:00,80.0,62.0,29.98,South,185,4.0,6.0,55,0.00,,,0.00,,2013-04-28 17:12:00,
2013-04-28 13:22:00,81.0,63.0,29.97,South,179,3.0,4.0,54,0.00,,,0.00,,2013-04-28 17:22:00,
2013-04-28 13:32:00,82.0,63.0,29.95,SW,216,1.0,1.0,53,0.00,,,0.00,,2013-04-28 17:32:00,
2013-04-28 13:42:00,82.0,63.0,29.95,SW,216,1.0,1.0,53,0.00,,,0.00,,2013-04-28 17:42:00,
2013-04-28 13:52:00,82.0,63.0,29.95,WNW,294,1.0,1.0,53,0.00,,,0.00,,2013-04-28 17:52:00,
2013-04-28 14:02:00,82.0,62.0,29.94,South,171,4.0,5.0,51,0.00,,,0.00,,2013-04-28 18:02:00,
2013-04-28 14:12:00,82.0,62.0,29.94,South,171,4.0,5.0,51,0.00,,,0.00,,2013-04-28 18:12:00,
2013-04-28 14:22:00,83.0,62.0,29.94,South,174,5.0,5.0,50,0.00,,,0.00,,2013-04-28 18:22:00,
2013-04-28 14:32:00,82.0,61.0,29.93,North,360,0.0,6.0,49,0.00,,,0.00,,2013-04-28 18:32:00,
2013-04-28 14:42:00,82.0,61.0,29.93,North,360,0.0,6.0,49,0.00,,,0.00,,2013-04-28 18:42:00,
2013-04-28 14:52:00,83.0,62.0,29.93,South,175,0.0,3.0,49,0.00,,,0.00,,2013-04-28 18:52:00,
2013-04-28 15:02:00,83.0,61.0,29.92,SSW,199,0.0,3.0,47,0.00,,,0.00,,2013-04-28 19:02:00,
2013-04-28 15:11:00,83.0,61.0,29.92,SSW,199,0.0,3.0,47,0.00,,,0.00,,2013-04-28 19:11:00,
2013-04-28 15:22:00,84.0,60.0,29.92,South,186,5.0,5.0,45,0.00,,,0.00,,2013-04-28 19:22:00,
2013-04-28 15:32:00,84.0,60.0,29.91,South,182,3.0,3.0,45,0.00,,,0.00,,2013-04-28 19:32:00,
2013-04-28 15:42:00,84.0,60.0,29.91,South,182,3.0,3.0,45,0.00,,,0.00,,2013-04-28 19:42:00,
2013-04-28 15:52:00,85.0,59.0,29.91,South,169,1.0,1.0,42,0.00,,,0.00,,2013-04-28 19:52:00,
2013-04-28 16:02:00,84.0,59.0,29.90,SSE,165,3.0,7.0,43,0.00,,,0.00,,2013-04-28 20:02:00,
2013-04-28 16:12:00,84.0,59.0,29.90,SSE,165,3.0,7.0,43,0.00,,,0.00,,2013-04-28 20:12:00,
2013-04-28 16:22:00,85.0,59.0,29.90,South,177,2.0,2.0,42,0.00,,,0.00,,2013-04-28 20:22:00,
2013-04-28 16:32:00,85.0,59.0,29.89,South,176,0.0,1.0,42,0.00,,,0.00,,2013-04-28 20:32:00,
2013-04-28 16:42:00,85.0,59.0,29.89,South,176,0.0,1.0,42,0.00,,,0.00,,2013-04-28 20:42:00,
2013-04-28 16:52:00,85.0,59.0,29.89,North,4,3.0,3.0,41,0.00,,,0.00,,2013-04-28 20:52:00,
2013-04-28 17:01:00,86.0,58.0,29.88,North,360,0.0,0.0,39,0.00,,,0.00,,2013-04-28 21:01:00,
2013-04-28 17:11:00,86.0,58.0,29.88,North,360,0.0,0.0,39,0.00,,,0.00,,2013-04-28 21:11:00,
2013-04-28 17:22:00,85.0,59.0,29.88,North,360,0.0,3.0,41,0.00,,,0.00,,2013-04-28 21:22:00,
2013-04-28 17:33:00,85.0,64.0,29.88,NNE,30,4.0,4.0,50,0.00,,,0.00,,2013-04-28 21:33:00,
2013-04-28 17:42:00,85.0,64.0,29.88,NNE,30,4.0,4.0,50,0.00,,,0.00,,2013-04-28 21:42:00,
2013-04-28 17:53:00,83.0,65.0,29.88,North,360,0.0,0.0,55,0.00,,,0.00,,2013-04-28 21:53:00,
2013-04-28 18:03:00,82.0,66.0,29.88,North,360,0.0,0.0,58,0.00,,,0.00,,2013-04-28 22:03:00,
2013-04-28 18:12:00,82.0,66.0,29.88,North,360,0.0,0.0,58,0.00,,,0.00,,2013-04-28 22:12:00,
2013-04-28 18:23:00,79.0,64.0,29.88,South,177,2.0,2.0,60,0.00,,,0.00,,2013-04-28 22:23:00,
2013-04-28 18:33:00,79.0,66.0,29.87,North,360,0.0,0.0,64,0.00,,,0.00,,2013-04-28 22:33:00,
2013-04-28 18:42:00,79.0,66.0,29.87,North,360,0.0,0.0,64,0.00,,,0.00,,2013-04-28 22:42:00,
2013-04-28 18:52:00,78.0,65.0,29.86,NE,34,0.0,0.0,65,0.00,,,0.00,,2013-04-28 22:52:00,
2013-04-28 19:02:00,78.0,65.0,29.87,North,360,0.0,2.0,65,0.00,,,0.00,,2013-04-28 23:02:00,
2013-04-28 19:12:00,78.0,65.0,29.87,North,360,0.0,2.0,65,0.00,,,0.00,,2013-04-28 23:12:00,
2013-04-28 19:22:00,77.0,66.0,29.87,South,190,0.0,1.0,68,0.00,,,0.00,,2013-04-28 23:22:00,
2013-04-28 19:32:00,77.0,66.0,29.86,North,360,0.0,0.0,69,0.00,,,0.00,,2013-04-28 23:32:00,
2013-04-28 19:42:00,77.0,66.0,29.86,North,360,0.0,0.0,69,0.00,,,0.00,,2013-04-28 23:42:00,
2013-04-28 19:52:00,77.0,65.0,29.87,North,360,0.0,0.0,67,0.00,,,0.00,,2013-04-28 23:52:00,
2013-04-28 20:01:00,76.0,64.0,29.87,North,360,0.0,0.0,67,0.00,,,0.00,,2013-04-29 00:01:00,
2013-04-28 20:11:00,76.0,64.0,29.87,North,360,0.0,0.0,67,0.00,,,0.00,,2013-04-29 00:11:00,
2013-04-28 20:22:00,76.0,65.0,29.88,North,360,0.0,0.0,69,0.00,,,0.00,,2013-04-29 00:22:00,
2013-04-28 20:32:00,76.0,66.0,29.88,North,360,0.0,0.0,71,0.00,,,0.00,,2013-04-29 00:32:00,
2013-04-28 20:42:00,76.0,66.0,29.88,North,360,0.0,0.0,71,0.00,,,0.00,,2013-04-29 00:42:00,
2013-04-28 20:52:00,75.0,66.0,29.88,North,360,0.0,0.0,73,0.00,,,0.00,,2013-04-29 00:52:00,
2013-04-28 21:01:00,75.0,66.0,29.88,North,360,0.0,0.0,73,0.00,,,0.00,,2013-04-29 01:01:00,
2013-04-28 21:12:00,75.0,65.0,29.88,North,360,0.0,0.0,72,0.00,,,0.00,,2013-04-29 01:12:00,
2013-04-28 21:21:00,75.0,65.0,29.88,North,360,0.0,0.0,72,0.00,,,0.00,,2013-04-29 01:21:00,
2013-04-28 21:32:00,75.0,65.0,29.88,North,360,0.0,0.0,71,0.00,,,0.00,,2013-04-29 01:32:00,
2013-04-28 21:42:00,75.0,65.0,29.88,North,360,0.0,0.0,71,0.00,,,0.00,,2013-04-29 01:42:00,
2013-04-28 21:52:00,75.0,65.0,29.88,North,360,0.0,0.0,71,0.00,,,0.00,,2013-04-29 01:52:00,
2013-04-28 22:02:00,75.0,66.0,29.88,North,360,0.0,0.0,73,0.00,,,0.00,,2013-04-29 02:02:00,
2013-04-28 22:11:00,75.0,66.0,29.88,North,360,0.0,0.0,73,0.00,,,0.00,,2013-04-29 02:11:00,
2013-04-28 22:22:00,75.0,66.0,29.89,North,360,0.0,0.0,74,0.00,,,0.00,,2013-04-29 02:22:00,
2013-04-28 22:32:00,75.0,67.0,29.89,North,360,0.0,0.0,75,0.00,,,0.00,,2013-04-29 02:32:00,
2013-04-28 22:42:00,75.0,67.0,29.89,North,360,0.0,0.0,75,0.00,,,0.00,,2013-04-29 02:42:00,
2013-04-28 22:52:00,75.0,67.0,29.89,North,360,0.0,0.0,75,0.00,,,0.00,,2013-04-29 02:52:00,
2013-04-28 23:01:00,75.0,67.0,29.90,North,360,0.0,0.0,76,0.00,,,0.00,,2013-04-29 03:01:00,
2013-04-28 23:12:00,75.0,67.0,29.90,North,360,0.0,0.0,76,0.00,,,0.00,,2013-04-29 03:12:00,
2013-04-28 23:21:00,74.0,66.0,29.89,NNE,21,1.0,1.0,76,0.00,,,0.00,,2013-04-29 03:21:00,
2013-04-28 23:33:00,74.0,66.0,29.91,North,360,0.0,0.0,77,0.00,,,0.00,,2013-04-29 03:33:00,
2013-04-28 23:42:00,74.0,66.0,29.91,North,360,0.0,0.0,77,0.00,,,0.00,,2013-04-29 03:42:00,
2013-04-28 23:53:00,74.0,66.0,29.91,North,360,0.0,0.0,77,0.00,,,0.00,,2013-04-29 03:53:00,